Flag for Canada Weather past 2 weeks in Port Coquitlam, British Columbia, Canada

Now
46 °F

Cool.


Feels Like: 44 °F
Forecast: 38 / 49 °F
Wind: 5 mph from East

Location: P. Meadows Coastal Station

Current Time: Dec 19, 2014 at 7:25:22 PM

Latest Report: Dec 19, 2014 at 6:00 PM


Visibility: N/A

Pressure: 29.91 "Hg

Humidity: 90%

Dew point: 43 °F

Location of Port CoquitlamLocation

Historic Weather in Port Coquitlam — Graph

°F

Port Coquitlam temperature yesterday

Maximum temperature yesterday: 46 °F (at 1:00 PM)
Minimum temperature yesterday: 42 °F (at 10:00 AM)
Average temperature yesterday: 44 °F

Past Weeks' High & Low Weather Summary

 TemperatureHumidityPressure
High61 °F (Dec 9, 9:00 AM)100% (Dec 4, 7:00 PM)30.26 "Hg (Dec 4, 7:00 PM)
Low27 °F (Dec 15, 6:00 AM)62% (Dec 11, 11:00 PM)29.18 "Hg (Dec 11, 5:00 PM)
Average44 °F92%29.85 "Hg
* Reported Dec 4 6:00 PM — Dec 19 6:00 PM, Port Coquitlam, Weather by CustomWeather, © 2014

Note: Actual official high and low records may vary slightly from our data, if they occured in-between our weather recording intervals... More about our weather records

Advertising

Port Coquitlam weather history for previous 24 hours

 ConditionsComfort  
Time TempWeatherWind HumidityBarometerVisibility
6:00 PM
Dec 19
46 °FCool.5 mph90%29.91 "HgN/A
5:00 PM46 °FCool.3 mph95%29.91 "HgN/A
4:00 PM47 °FCool.3 mph94%29.91 "HgN/A
3:00 PM47 °FCool.5 mph93%29.91 "HgN/A
2:00 PM49 °FCool.3 mph85%29.91 "HgN/A
1:00 PM48 °FCool.1 mph89%29.91 "HgN/A
12:00 PM48 °FCool.5 mph83%29.91 "HgN/A
11:00 AM48 °FCool.1 mph86%29.91 "HgN/A
10:00 AM45 °FCool.3 mph92%29.89 "HgN/A
9:00 AM45 °FCool.5 mph91%29.84 "HgN/A
8:00 AM47 °FCool.2 mph95%29.82 "HgN/A
7:00 AM47 °FCool.1 mph93%29.80 "HgN/A
6:00 AM46 °FCool.3 mph87%29.78 "HgN/A
5:00 AM46 °FCool.1 mph95%29.77 "HgN/A
4:00 AM47 °FCool.2 mph93%29.77 "HgN/A
3:00 AM45 °FCool.1 mph97%29.76 "HgN/A
2:00 AM45 °FCool.1 mph98%29.75 "HgN/A
1:00 AM44 °FQuite cool.3 mph98%29.73 "HgN/A
12:00 AM44 °FQuite cool.3 mph97%29.71 "HgN/A
11:00 PM
Dec 18
45 °FCool.2 mph94%29.70 "HgN/A
10:00 PM45 °FCool.1 mph94%29.68 "HgN/A
9:00 PM45 °FCool.8 mph93%29.67 "HgN/A
8:00 PM45 °FCool.5 mph89%29.70 "HgN/A
7:00 PM45 °FCool.3 mph89%29.71 "HgN/A
Weather by CustomWeather, © 2014

See weather overviewHow to use our weather pages